Regional Weather Roundup
Issued by NWS Green Bay, WI

Home | Current Version | Previous Version | Text Only | Print | Product List | Glossary On
Versions: 1 2 3 4 5 6 7 8 9 10 11 12 13 14 15 16 17 18 19 20 21 22 23 24 25 26 27 28 29 30 31 32 33 34 35 36 37 38 39 40 41 42 43 44 45 46 47 48 49 50
000
ASUS43 KGRB 300810
RWRGRB

NORTH-CENTRAL AND NORTHEAST WISCONSIN REGIONAL WEATHER ROUNDUP
NATIONAL WEATHER SERVICE GREEN BAY WI
200 AM CST FRI JAN 30 2015

WIZ005-009-010>012-018-019-300900-
NORTH CENTRAL WISCONSIN

CITY           SKY/WX    TMP DP  RH WIND       PRES   REMARKS
IRONWOOD       CLOUDY    12   7  79 NW9       30.41R WCI   0
MANITOWISH WTR FLURRIES  11   5  76 N7        30.37S WCI   0
ARBOR VITAE    CLOUDY    14   7  74 N10G18    30.38R WCI   1
EAGLE RIVER    CLOUDY    11   3  70 N9        30.36R WCI  -2
LAND O LAKES   FLURRIES  11   6  78 NW6       30.36S WCI   2
RHINELANDER    CLOUDY    12   3  67 N7        30.37R WCI   1
PHILLIPS       CLOUDY    12   4  70 NW6       30.41R WCI   2
ANTIGO         CLOUDY    13   5  69 NW12      30.37R WCI  -1
TOMAHAWK       CLOUDY    13   5  71 CALM      30.40R
MERRILL        CLOUDY    15   5  65 NW6       30.41R WCI   6
$$

WIZ013-073-300900-
NORTHEAST WISCONSIN

CITY           SKY/WX    TMP DP  RH WIND       PRES   REMARKS
IRON MOUNTAIN  CLOUDY    12   2  64 N9        30.37R WCI   0
MARINETTE      CLOUDY    16   1  53 N13G23    30.40R WCI   2
OCONTO         CLOUDY    17   6  62 MISG      30.42R
$$

WIZ017-030-035>037-045-300900-
CENTRAL WISCONSIN

CITY           SKY/WX    TMP DP  RH WIND       PRES   REMARKS
MEDFORD        CLOUDY    13   5  70 NW10      30.41R WCI   0
WAUSAU         CLOUDY    16   4  59 NW10      30.40R WCI   4
MOSINEE        CLOUDY    18   9  68 NW14      30.41R WCI   4
MARSHFIELD     CLOUDY    14   4  64 NW10      30.42R WCI   1
WISC RAPIDS    CLOUDY    18   6  59 N7        30.44R WCI   9
STEVENS POINT  MOCLDY    14   4  64 N5        30.42R WCI   7
WAUPACA        CLOUDY    21   7  54 NW6       30.42S
SHAWANO        CLOUDY    21   6  52 N13       30.42R WCI   8
CLINTONVILLE   CLOUDY    19   7  58 NW8       30.41R WCI   9
$$

WIZ038-039-048-051-300900-
FOX VALLEY

CITY           SKY/WX    TMP DP  RH WIND       PRES   REMARKS
NWS GREEN BAY  MOCLDY    18   8  65 NW6       30.41R WCI  10
APPLETON       CLOUDY    19  10  68 N10       30.41R WCI   8
OSHKOSH        CLOUDY    20   8  60 NW13      30.40R WCI   7
FOND DU LAC    PTCLDY    17   6  62 NW9       30.40R WCI   6
$$

WIZ022-050-052-300900-
EAST CENTRAL WISCONSIN

CITY           SKY/WX    TMP DP  RH WIND       PRES   REMARKS
STURGEON BAY   CLOUDY    16   3  57 N18       30.41R WCI  -1
MANITOWOC      MOCLDY    18   9  68 N10       30.40R WCI   6
SHEBOYGAN      FLURRIES  20  10  65 N10       30.39R WCI   9
$$

LMZ563-521-522-541>543-300900-
LAKESHORE

STATION/POSITION TIME  TEMP    WIND        PRES    VSBY  WAVE
                       AIR SEA DIR/SP/G                  HT/PER
                 (UTC) (F)     (DEG/KT/KT) (MB)    (MI)  (FT/S)
SHEBOYGAN LKSHOR 0800   21     350/ 21/ 23 1030.5R
KEWAUNEE LKSHORE 0800   16     340/  7/ 12 1028.1R
NORTHPORT PIER   0800   18     320/ 23/ 30 1028.8R
SISTER BAY LKSHO 0800   16     360/ 25/ 31   N/A
CHAMBERS ISLAND  0800   17     310/ 15/ 18 1029.1S
MENOMINEE LKSHOR 0800   17     310/ 14     1029.9R
$$


USA.gov is the U.S. government's official web portal to all federal, state and local government web resources and services.